sat.trackr.live / text

‹ back to catalog

STARLINK-37529

NORAD 68918 · 2026-097Z

PAYLOAD ACTIVE UNKNOWN

§ Identity

Operator
Country
US
Launch date
2026-04-30
Launch site
AFWTR
Launch vehicle
Mass (kg)
RCS (m²)

Purposes: comms

External: N2YO · Heavens-Above · Gunter

§ Orbital elements

Epoch: 2026-05-25T02:50:18.522816Z

Period
92.95 min
Inclination
97.2867°
Eccentricity
0.0001023
Mean motion
15.49193539 rev/d
Perigee alt
418.4 km
Apogee alt
419.8 km
Semi-major
6,797.2 km
B*
8.9941e-4
RAAN
340.8543°
Arg perigee
106.8628°
Mean anomaly
253.2735°
Rev number
394

§ Raw data

STARLINK-375291 68918U 26097Z   26145.11826994  .00049139  00000+0  89941-3 0  99932 68918  97.2867 340.8543 0001023 106.8628 253.2735 15.49193539  3949

JSON: /api/v1/satellites/68918 · /tle

For live sub-satellite position, see the globe view (requires WebGL).

§ Visibility from observer

Set your observer location to see the next 7 days of passes ≥ 10°. The values pass through the URL so the page stays shareable.

No JS? Fill the form by hand. The geolocation button needs JavaScript.